Weather History for Slidell, LA

Change the Weather History Date:

Monday, March 3, 2014

  Actual Average (KNEW) Record (KNEW)
Temperature  
Mean Temperature 50 °F 60 °F  
Max Temperature 66 °F 69 °F 83 °F (1955)
Min Temperature 33 °F 51 °F 25 °F (1980)
Degree Days  
Heating Degree Days 16 6  
Month to date heating degree days 18  
Since 1 July heating degree days 1127  
Cooling Degree Days 0 1  
Month to date cooling degree days 3  
Year to date cooling degree days 40  
Moisture  
Dew Point 45 °F    
Average Humidity 80    
Maximum Humidity 93    
Minimum Humidity 52    
Precipitation  
Precipitation 0.07 in 0.16 in 3.39 in (2001)
Month to date precipitation 0.47  
Year to date precipitation 10.92  
Snow  
Snow 0.00 in - - ()
Month to date snowfall  
Since 1 July snowfall  
Snow Depth -    
Sea Level Pressure  
Sea Level Pressure 30.06 in    
Wind  
Wind Speed 9 mph (NNW)    
Max Wind Speed 21 mph    
Max Gust Speed 29 mph    
Visibility 10 miles    
Events Rain    
T = Trace of Precipitation, MM = Missing Value Source: NWS Daily Summary

Daily Weather History Graph

Daily Weather History Graph

Search for Another Location

Airport:

Trip Planner

Search our weather history database for the weather conditions in past years. The results will help you decide how hot, cold, wet, or windy it might be!

Date:

Astronomy

Mar. 03, 2014 Rise Set
Actual Time 6:23 AM CST 5:59 PM CST
Civil Twilight 5:59 AM CST 6:23 PM CST
Nautical Twilight 5:31 AM CST 6:51 PM CST
Astronomical Twilight 5:03 AM CST 7:19 PM CST
Moon 7:44 AM CST (3/3) 8:46 PM CST (3/3)
Length of Visible Light 12h 24m
Length of Day
11h 36m
Waxing Crescent, 8% of the Moon is Illuminated
Mar 3
Waxing Crescent
Mar 8
First Quarter
Mar 16
Full
Mar 23
Last Quarter
Mar 30
New

Hourly Weather History & Observations

Time (CST) Temp. Windchill Dew Point Humidity Pressure Visibility Wind Dir Wind Speed Gust Speed Precip Events Conditions
12:36 AM 64.9 °F - 63.0 °F 93% 29.97 in 10.0 mi South 3.5 mph - N/A   Overcast
12:44 AM 64.9 °F - 63.0 °F 93% 29.97 in 10.0 mi South 3.5 mph - N/A   Overcast
12:53 AM 64.9 °F - 62.1 °F 90% 29.96 in 10.0 mi SSE 5.8 mph - N/A   Overcast
1:16 AM 64.9 °F - 63.0 °F 93% 29.95 in 10.0 mi SSE 5.8 mph - N/A   Mostly Cloudy
1:53 AM 64.9 °F - 63.0 °F 93% 29.93 in 9.0 mi South 6.9 mph - N/A   Overcast
2:10 AM 64.9 °F - 63.0 °F 93% 29.92 in 9.0 mi South 6.9 mph - N/A   Overcast
2:37 AM 66.0 °F - 63.0 °F 90% 29.91 in 9.0 mi South 6.9 mph - N/A   Overcast
2:53 AM 66.0 °F - 64.0 °F 93% 29.92 in 10.0 mi South 5.8 mph - N/A   Overcast
3:09 AM 66.9 °F - 64.0 °F 90% 29.92 in 10.0 mi SSW 5.8 mph - N/A   Overcast
3:42 AM 66.9 °F - 64.0 °F 90% 29.92 in 10.0 mi Variable 3.5 mph - 0.00 in Rain Light Rain
3:53 AM 66.9 °F - 63.0 °F 87% 29.93 in 10.0 mi WSW 8.1 mph 19.6 mph 0.00 in   Overcast
4:17 AM 66.9 °F - 63.0 °F 87% 29.93 in 10.0 mi WNW 9.2 mph - N/A   Overcast
4:25 AM 66.0 °F - 62.1 °F 87% 29.94 in 10.0 mi NW 8.1 mph 18.4 mph N/A   Overcast
4:34 AM 66.0 °F - 61.0 °F 84% 29.94 in 10.0 mi NW 8.1 mph - N/A   Overcast
4:53 AM 64.9 °F - 60.1 °F 84% 29.94 in 10.0 mi Calm Calm - N/A   Overcast
5:21 AM 64.0 °F - 60.1 °F 87% 29.95 in 2.5 mi NW 3.5 mph - 0.02 in Rain Rain
5:32 AM 63.0 °F - 61.0 °F 93% 29.95 in 6.0 mi NNW 5.8 mph - 0.03 in Rain Light Rain
5:53 AM 61.0 °F - 59.0 °F 93% 29.98 in 8.0 mi NW 10.4 mph - 0.06 in Rain Light Rain
6:53 AM 50.0 °F - 46.9 °F 89% 30.04 in 10.0 mi NNW 11.5 mph 19.6 mph 0.01 in   Overcast
7:19 AM 46.9 °F - 43.0 °F 86% 30.06 in 10.0 mi North 11.5 mph 20.7 mph N/A   Overcast
7:28 AM 46.0 °F 40.2 °F 43.0 °F 89% 30.07 in 10.0 mi NNW 12.7 mph 23.0 mph N/A   Overcast
7:36 AM 45.0 °F 38.2 °F 42.1 °F 90% 30.07 in 10.0 mi North 15.0 mph 23.0 mph N/A   Overcast
7:53 AM 44.1 °F 37.7 °F 41.0 °F 89% 30.08 in 10.0 mi NNW 12.7 mph 26.5 mph N/A   Overcast
8:53 AM 42.1 °F 34.2 °F 37.9 °F 85% 30.13 in 10.0 mi North 16.1 mph 24.2 mph N/A   Overcast
9:15 AM 43.0 °F 36.0 °F 37.9 °F 82% 30.14 in 10.0 mi NNW 13.8 mph 21.9 mph N/A   Overcast
9:53 AM 44.1 °F 37.1 °F 37.9 °F 79% 30.15 in 10.0 mi NNW 15.0 mph 21.9 mph N/A   Overcast
10:29 AM 45.0 °F 38.5 °F 36.0 °F 71% 30.16 in 10.0 mi NNW 13.8 mph 21.9 mph N/A   Overcast
10:53 AM 45.0 °F 37.4 °F 36.0 °F 71% 30.17 in 10.0 mi North 18.4 mph 27.6 mph N/A   Overcast
11:53 AM 46.9 °F - 37.0 °F 68% 30.16 in 10.0 mi NNW 13.8 mph 19.6 mph N/A   Overcast
12:53 PM 45.0 °F 38.9 °F 34.0 °F 65% 30.14 in 10.0 mi North 12.7 mph 23.0 mph N/A   Mostly Cloudy
1:03 PM 46.0 °F 39.6 °F 34.0 °F 63% 30.14 in 10.0 mi NNW 15.0 mph 21.9 mph N/A   Partly Cloudy
1:53 PM 46.9 °F - 33.1 °F 59% 30.13 in 10.0 mi North 15.0 mph 24.2 mph N/A   Clear
2:53 PM 48.9 °F - 33.1 °F 54% 30.12 in 10.0 mi North 16.1 mph - N/A   Clear
3:53 PM 50.0 °F - 33.1 °F 52% 30.11 in 10.0 mi North 16.1 mph 26.5 mph N/A   Clear
4:53 PM 46.9 °F - 32.0 °F 56% 30.13 in 10.0 mi North 15.0 mph 19.6 mph N/A   Clear
5:53 PM 42.1 °F 34.5 °F 30.0 °F 62% 30.16 in 10.0 mi North 15.0 mph 24.2 mph N/A   Clear
6:53 PM 37.0 °F 30.4 °F 28.0 °F 70% 30.17 in 10.0 mi NNW 9.2 mph 18.4 mph N/A   Clear
7:53 PM 37.0 °F 27.4 °F 28.0 °F 70% 30.18 in 10.0 mi North 17.3 mph - N/A   Clear
8:37 PM 35.1 °F 23.8 °F 26.1 °F 70% 30.20 in 10.0 mi North 20.7 mph 27.6 mph N/A   Mostly Cloudy
8:45 PM 34.0 °F 24.6 °F 26.1 °F 73% 30.21 in 10.0 mi NNE 13.8 mph 28.8 mph N/A   Scattered Clouds
8:53 PM 34.0 °F 23.8 °F 26.1 °F 73% 30.20 in 10.0 mi North 16.1 mph - N/A   Mostly Cloudy
9:53 PM 34.0 °F 23.8 °F 26.1 °F 73% 30.21 in 10.0 mi North 16.1 mph 24.2 mph N/A   Overcast
10:53 PM 33.1 °F 23.4 °F 26.1 °F 75% 30.21 in 10.0 mi North 13.8 mph - N/A   Overcast
11:53 PM 34.0 °F 26.6 °F 26.1 °F 73% 30.19 in 10.0 mi NNE 9.2 mph - N/A   Overcast